Time,TemperatureF,DewpointF,PressureIn,WindDirection,WindDirectionDegrees,WindSpeedMPH,WindSpeedGustMPH,Humidity,HourlyPrecipIn,Conditions,Clouds,dailyrainin,SolarRadiationWatts/m^2,SoftwareType,DateUTC
2013-10-04 00:25:00,52.0,24.0,-100.00,SSW,194,3.0,9.0,33,0.00,,,-99.99,0.000000,,2013-10-04 06:25:00,
2013-10-04 00:34:00,52.0,24.0,-100.00,SSW,194,3.0,9.0,33,0.00,,,-99.99,0.000000,,2013-10-04 06:34:00,
2013-10-04 00:45:00,52.0,24.0,-100.00,SSW,194,3.0,9.0,33,0.00,,,-99.99,0.000000,,2013-10-04 06:45:00,
2013-10-04 00:54:00,52.0,24.0,-100.00,SSW,194,3.0,9.0,33,0.00,,,-99.99,0.000000,,2013-10-04 06:54:00,
2013-10-04 01:25:00,53.0,24.0,-100.00,SW,224,6.0,16.0,32,0.00,,,0.00,0.000000,,2013-10-04 07:25:00,
2013-10-04 01:34:00,53.0,24.0,-100.00,SW,224,6.0,16.0,32,0.00,,,0.00,0.000000,,2013-10-04 07:34:00,
2013-10-04 01:44:00,53.0,24.0,-100.00,SW,224,6.0,16.0,32,0.00,,,0.00,0.000000,,2013-10-04 07:44:00,
2013-10-04 01:54:00,53.0,24.0,-100.00,SW,224,6.0,16.0,32,0.00,,,0.00,0.000000,,2013-10-04 07:54:00,
2013-10-04 02:25:00,50.0,27.0,-100.00,West,275,10.0,20.0,40,0.00,,,0.00,0.000000,,2013-10-04 08:25:00,
2013-10-04 02:34:00,50.0,27.0,-100.00,West,275,10.0,20.0,40,0.00,,,0.00,0.000000,,2013-10-04 08:34:00,
2013-10-04 02:44:00,50.0,27.0,-100.00,West,275,10.0,20.0,40,0.00,,,0.00,0.000000,,2013-10-04 08:44:00,
2013-10-04 02:54:00,50.0,27.0,-100.00,West,275,10.0,20.0,40,0.00,,,0.00,0.000000,,2013-10-04 08:54:00,
2013-10-04 03:25:00,46.0,27.0,-100.00,SSW,207,3.0,18.0,47,0.00,,,0.00,0.000000,,2013-10-04 09:25:00,
2013-10-04 03:36:00,46.0,27.0,-100.00,SSW,207,3.0,18.0,47,0.00,,,0.00,0.000000,,2013-10-04 09:36:00,
2013-10-04 03:46:00,46.0,27.0,-100.00,SSW,207,3.0,18.0,47,0.00,,,0.00,0.000000,,2013-10-04 09:46:00,
2013-10-04 03:56:00,46.0,27.0,-100.00,SSW,207,3.0,18.0,47,0.00,,,0.00,0.000000,,2013-10-04 09:56:00,
2013-10-04 04:27:00,42.0,25.0,-100.00,SSE,155,3.0,17.0,50,0.00,,,0.00,0.000000,,2013-10-04 10:27:00,
2013-10-04 04:37:00,42.0,25.0,-100.00,SSE,155,3.0,17.0,50,0.00,,,0.00,0.000000,,2013-10-04 10:37:00,
2013-10-04 04:47:00,42.0,25.0,-100.00,SSE,155,3.0,17.0,50,0.00,,,0.00,0.000000,,2013-10-04 10:47:00,
2013-10-04 04:56:00,42.0,25.0,-100.00,SSE,155,3.0,17.0,50,0.00,,,0.00,0.000000,,2013-10-04 10:56:00,
2013-10-04 05:27:00,40.0,22.0,-100.00,South,181,3.0,10.0,48,0.00,,,0.00,0.000000,,2013-10-04 11:27:00,
2013-10-04 05:37:00,40.0,22.0,-100.00,South,181,3.0,10.0,48,0.00,,,0.00,0.000000,,2013-10-04 11:37:00,
2013-10-04 05:46:00,40.0,22.0,-100.00,South,181,3.0,10.0,48,0.00,,,0.00,0.000000,,2013-10-04 11:46:00,
2013-10-04 05:55:00,40.0,22.0,-100.00,South,181,3.0,10.0,48,0.00,,,0.00,0.000000,,2013-10-04 11:55:00,
2013-10-04 06:27:00,36.0,21.0,-100.00,WNW,283,4.0,13.0,54,0.00,,,0.00,0.000000,,2013-10-04 12:27:00,
2013-10-04 06:36:00,36.0,21.0,-100.00,WNW,283,4.0,13.0,54,0.00,,,0.00,0.000000,,2013-10-04 12:36:00,
2013-10-04 06:46:00,36.0,21.0,-100.00,WNW,283,4.0,13.0,54,0.00,,,0.00,0.000000,,2013-10-04 12:46:00,
2013-10-04 06:55:00,36.0,21.0,-100.00,WNW,283,4.0,13.0,54,0.00,,,0.00,0.000000,,2013-10-04 12:55:00,
2013-10-04 07:26:00,33.0,22.0,-100.00,East,79,2.0,8.0,63,0.00,,,0.00,0.000000,,2013-10-04 13:26:00,
2013-10-04 07:36:00,33.0,22.0,-100.00,East,79,2.0,8.0,63,0.00,,,0.00,0.000000,,2013-10-04 13:36:00,
2013-10-04 07:46:00,33.0,22.0,-100.00,East,79,2.0,8.0,63,0.00,,,0.00,0.000000,,2013-10-04 13:46:00,
2013-10-04 07:55:00,33.0,22.0,-100.00,East,79,2.0,8.0,63,0.00,,,0.00,0.000000,,2013-10-04 13:55:00,
2013-10-04 08:26:00,34.0,23.0,-100.00,NNE,17,1.0,4.0,64,0.00,,,0.00,26.000000,,2013-10-04 14:26:00,
2013-10-04 08:36:00,34.0,23.0,-100.00,NNE,17,1.0,4.0,64,0.00,,,0.00,26.000000,,2013-10-04 14:36:00,
2013-10-04 08:46:00,34.0,23.0,-100.00,NNE,17,1.0,4.0,64,0.00,,,0.00,26.000000,,2013-10-04 14:46:00,
2013-10-04 08:55:00,34.0,23.0,-100.00,NNE,17,1.0,4.0,64,0.00,,,0.00,26.000000,,2013-10-04 14:55:00,
2013-10-04 09:27:00,38.0,24.0,-100.00,South,189,5.0,10.0,56,0.00,,,0.00,236.000000,,2013-10-04 15:27:00,
2013-10-04 09:37:00,38.0,24.0,-100.00,South,189,5.0,10.0,56,0.00,,,0.00,236.000000,,2013-10-04 15:37:00,
2013-10-04 09:47:00,38.0,24.0,-100.00,South,189,5.0,10.0,56,0.00,,,0.00,236.000000,,2013-10-04 15:47:00,
2013-10-04 09:56:00,38.0,24.0,-100.00,South,189,5.0,10.0,56,0.00,,,0.00,236.000000,,2013-10-04 15:56:00,
2013-10-04 10:27:00,40.0,22.0,-100.00,SW,231,5.0,10.0,48,0.00,,,0.00,443.000000,,2013-10-04 16:27:00,
2013-10-04 10:37:00,40.0,22.0,-100.00,SW,231,5.0,10.0,48,0.00,,,0.00,443.000000,,2013-10-04 16:37:00,
2013-10-04 10:47:00,40.0,22.0,-100.00,SW,231,5.0,10.0,48,0.00,,,0.00,443.000000,,2013-10-04 16:47:00,
2013-10-04 10:56:00,40.0,22.0,-100.00,SW,231,5.0,10.0,48,0.00,,,0.00,443.000000,,2013-10-04 16:56:00,
2013-10-04 11:27:00,44.0,22.0,-100.00,SW,216,6.0,12.0,41,0.00,,,0.00,621.000000,,2013-10-04 17:27:00,
2013-10-04 12:27:00,46.0,19.0,-100.00,SSW,201,8.0,16.0,33,0.00,,,0.00,752.000000,,2013-10-04 18:27:00,
2013-10-04 12:38:00,46.0,19.0,-100.00,SSW,201,8.0,16.0,33,0.00,,,0.00,752.000000,,2013-10-04 18:38:00,
2013-10-04 12:47:00,46.0,19.0,-100.00,SSW,201,8.0,16.0,33,0.00,,,0.00,752.000000,,2013-10-04 18:47:00,
2013-10-04 12:55:00,46.0,19.0,-100.00,SSW,201,8.0,16.0,33,0.00,,,0.00,752.000000,,2013-10-04 18:55:00,
2013-10-04 13:22:00,49.0,15.0,-100.00,South,188,11.0,21.0,25,0.00,,,0.00,826.000000,,2013-10-04 19:22:00,
2013-10-04 13:32:00,49.0,15.0,-100.00,South,188,11.0,21.0,25,0.00,,,0.00,826.000000,,2013-10-04 19:32:00,
2013-10-04 13:43:00,49.0,15.0,-100.00,South,188,11.0,21.0,25,0.00,,,0.00,826.000000,,2013-10-04 19:43:00,
2013-10-04 13:52:00,49.0,15.0,-100.00,South,188,11.0,21.0,25,0.00,,,0.00,826.000000,,2013-10-04 19:52:00,
2013-10-04 14:22:00,53.0,12.0,-100.00,South,190,9.0,19.0,19,0.00,,,0.00,831.000000,,2013-10-04 20:22:00,
2013-10-04 14:32:00,53.0,12.0,-100.00,South,190,9.0,19.0,19,0.00,,,0.00,831.000000,,2013-10-04 20:32:00,
2013-10-04 14:42:00,53.0,12.0,-100.00,South,190,9.0,19.0,19,0.00,,,0.00,831.000000,,2013-10-04 20:42:00,
2013-10-04 14:52:00,53.0,12.0,-100.00,South,190,9.0,19.0,19,0.00,,,0.00,831.000000,,2013-10-04 20:52:00,
2013-10-04 15:22:00,53.0,8.0,-100.00,WSW,253,8.0,19.0,16,0.00,,,0.00,770.000000,,2013-10-04 21:22:00,
2013-10-04 15:33:00,53.0,8.0,-100.00,WSW,253,8.0,19.0,16,0.00,,,0.00,770.000000,,2013-10-04 21:33:00,
2013-10-04 15:43:00,53.0,8.0,-100.00,WSW,253,8.0,19.0,16,0.00,,,0.00,770.000000,,2013-10-04 21:43:00,
2013-10-04 15:54:00,53.0,8.0,-100.00,WSW,253,8.0,19.0,16,0.00,,,0.00,770.000000,,2013-10-04 21:54:00,
2013-10-04 16:23:00,52.0,11.0,-100.00,West,272,8.0,18.0,19,0.00,,,0.00,647.000000,,2013-10-04 22:23:00,
2013-10-04 16:33:00,52.0,11.0,-100.00,West,272,8.0,18.0,19,0.00,,,0.00,647.000000,,2013-10-04 22:33:00,
2013-10-04 16:42:00,52.0,11.0,-100.00,West,272,8.0,18.0,19,0.00,,,0.00,647.000000,,2013-10-04 22:42:00,
2013-10-04 16:52:00,52.0,11.0,-100.00,West,272,8.0,18.0,19,0.00,,,0.00,647.000000,,2013-10-04 22:52:00,
2013-10-04 17:22:00,50.0,8.0,-100.00,SW,225,8.0,16.0,18,0.00,,,0.00,478.000000,,2013-10-04 23:22:00,
2013-10-04 17:33:00,50.0,8.0,-100.00,SW,225,8.0,16.0,18,0.00,,,0.00,478.000000,,2013-10-04 23:33:00,
2013-10-04 17:42:00,50.0,8.0,-100.00,SW,225,8.0,16.0,18,0.00,,,0.00,478.000000,,2013-10-04 23:42:00,
2013-10-04 17:53:00,50.0,8.0,-100.00,SW,225,8.0,16.0,18,0.00,,,0.00,478.000000,,2013-10-04 23:53:00,
2013-10-04 18:22:00,48.0,11.0,-100.00,SW,221,7.0,16.0,22,0.00,,,0.00,277.000000,,2013-10-05 00:22:00,
2013-10-04 18:32:00,48.0,11.0,-100.00,SW,221,7.0,16.0,22,0.00,,,0.00,277.000000,,2013-10-05 00:32:00,
2013-10-04 18:42:00,48.0,11.0,-100.00,SW,221,7.0,16.0,22,0.00,,,0.00,277.000000,,2013-10-05 00:42:00,
2013-10-04 18:52:00,48.0,11.0,-100.00,SW,221,7.0,16.0,22,0.00,,,0.00,277.000000,,2013-10-05 00:52:00,
2013-10-04 19:21:00,42.0,13.0,-100.00,West,273,5.0,13.0,30,0.00,,,0.00,65.000000,,2013-10-05 01:21:00,
2013-10-04 19:32:00,42.0,13.0,-100.00,West,273,5.0,13.0,30,0.00,,,0.00,65.000000,,2013-10-05 01:32:00,
2013-10-04 19:43:00,42.0,13.0,-100.00,West,273,5.0,13.0,30,0.00,,,0.00,65.000000,,2013-10-05 01:43:00,
2013-10-04 19:52:00,42.0,13.0,-100.00,West,273,5.0,13.0,30,0.00,,,0.00,65.000000,,2013-10-05 01:52:00,
2013-10-04 20:22:00,39.0,14.0,-100.00,SE,139,1.0,9.0,36,0.00,,,0.00,0.000000,,2013-10-05 02:22:00,
2013-10-04 20:32:00,39.0,14.0,-100.00,SE,139,1.0,9.0,36,0.00,,,0.00,0.000000,,2013-10-05 02:32:00,
2013-10-04 20:42:00,39.0,14.0,-100.00,SE,139,1.0,9.0,36,0.00,,,0.00,0.000000,,2013-10-05 02:42:00,
2013-10-04 20:52:00,39.0,14.0,-100.00,SE,139,1.0,9.0,36,0.00,,,0.00,0.000000,,2013-10-05 02:52:00,
2013-10-04 21:23:00,35.0,15.0,-100.00,ENE,74,3.0,7.0,44,0.00,,,0.00,0.000000,,2013-10-05 03:23:00,
2013-10-04 21:34:00,35.0,15.0,-100.00,ENE,74,3.0,7.0,44,0.00,,,0.00,0.000000,,2013-10-05 03:34:00,
2013-10-04 21:45:00,35.0,15.0,-100.00,ENE,74,3.0,7.0,44,0.00,,,0.00,0.000000,,2013-10-05 03:45:00,
2013-10-04 21:55:00,35.0,15.0,-100.00,ENE,74,3.0,7.0,44,0.00,,,0.00,0.000000,,2013-10-05 03:55:00,
2013-10-04 22:24:00,32.0,15.0,-100.00,NNE,20,5.0,7.0,49,0.00,,,0.00,0.000000,,2013-10-05 04:24:00,
2013-10-04 22:33:00,32.0,15.0,-100.00,NNE,20,5.0,7.0,49,0.00,,,0.00,0.000000,,2013-10-05 04:33:00,
2013-10-04 22:43:00,32.0,15.0,-100.00,NNE,20,5.0,7.0,49,0.00,,,0.00,0.000000,,2013-10-05 04:43:00,
2013-10-04 22:53:00,32.0,15.0,-100.00,NNE,20,5.0,7.0,49,0.00,,,0.00,0.000000,,2013-10-05 04:53:00,
2013-10-04 23:22:00,33.0,16.0,-100.00,ENE,63,4.0,8.0,49,0.00,,,0.00,0.000000,,2013-10-05 05:22:00,
2013-10-04 23:34:00,33.0,16.0,-100.00,ENE,63,4.0,8.0,49,0.00,,,0.00,0.000000,,2013-10-05 05:34:00,
2013-10-04 23:43:00,33.0,16.0,-100.00,ENE,63,4.0,8.0,49,0.00,,,0.00,0.000000,,2013-10-05 05:43:00,
2013-10-04 23:52:00,33.0,16.0,-100.00,ENE,63,4.0,8.0,49,0.00,,,0.00,0.000000,,2013-10-05 05:52:00,